Location: Tel Aviv
(32.0670°N, 34.7670°E)
Time: 11:04:01
(UTC+02:00)

Vanguard 2 Rocket - All Passes

Search period start: 28 January 2022 00:00
Search period end: 07 February 2022 00:00
Orbit: 553 x 3325 km, 32.9° (Epoch: 27 January)

Date Brightness Start Highest point End Pass type
(mag) Time Alt. Az. Time Alt. Az. Time Alt. Az.
28 Jan - 00:04:54 10° SW 00:16:09 69° SSE 00:34:43 10° ENE visible
28 Jan - 02:18:37 10° W 02:33:49 88° N 02:54:38 10° E visible
28 Jan - 04:34:30 10° W 04:53:22 84° SSW 05:12:50 10° ESE visible
28 Jan - 06:52:21 10° WNW 07:11:32 52° SW 07:27:15 10° SE daylight
28 Jan - 09:15:39 10° W 09:26:29 18° SW 09:35:26 10° SSW daylight
28 Jan - 20:58:30 10° SSE 21:02:45 14° SE 21:08:01 10° E night (unlit)
28 Jan - 23:05:43 10° SW 23:15:13 54° SSE 23:31:21 10° ENE visible
29 Jan - 01:18:16 10° WSW 01:31:24 89° S 01:51:38 10° E visible
29 Jan - 03:33:15 10° W 03:50:26 90° SSW 04:10:57 10° ESE visible
29 Jan - 05:49:58 10° WNW 06:09:24 64° SSW 06:27:06 10° SE visible
29 Jan - 08:10:11 10° W 08:25:39 29° SW 08:38:12 10° S daylight
29 Jan - 22:07:06 10° SSW 22:14:57 38° SE 22:27:50 10° E night (unlit)
30 Jan - 00:18:22 10° WSW 00:29:34 81° SSE 00:48:24 10° ENE visible
30 Jan - 02:32:26 10° W 02:47:38 87° N 03:08:26 10° E visible
30 Jan - 04:48:13 10° WNW 05:06:51 75° SSW 05:26:12 10° ESE visible
30 Jan - 07:06:28 10° W 07:24:18 41° SW 07:39:28 10° SSE daylight
30 Jan - 09:37:56 10° WSW 09:38:59 10° SW 09:40:02 10° SW daylight
30 Jan - 21:09:18 10° S 21:15:16 23° SE 21:24:00 10° E night (unlit)
30 Jan - 23:18:55 10° SW 23:28:23 68° SSE 23:45:04 10° ENE visible
31 Jan - 01:32:02 10° W 01:45:10 87° N 02:05:26 10° E visible
31 Jan - 03:47:00 10° W 04:04:05 83° SSW 04:24:32 10° ESE visible
31 Jan - 06:03:50 10° WNW 06:22:25 52° SW 06:39:44 10° SE visible
31 Jan - 08:26:12 10° W 08:38:10 19° SW 08:48:35 10° S daylight
31 Jan - 20:13:58 10° SE 20:15:57 11° SE 20:18:09 10° ESE night (unlit)
31 Jan - 22:19:55 10° SW 22:27:52 52° SSE 22:41:48 10° ENE night (unlit)
01 Feb - 00:32:02 10° WSW 00:43:13 89° S 01:02:07 10° E visible
01 Feb - 02:46:12 10° W 03:01:23 89° S 03:22:10 10° ESE visible
01 Feb - 05:01:58 10° WNW 05:20:06 63° SSW 05:39:11 10° SE visible
01 Feb - 07:21:13 10° W 07:36:57 30° SW 07:50:55 10° S daylight
01 Feb - 21:21:29 10° SSW 21:27:58 35° SE 21:38:32 10° E night (unlit)
01 Feb - 23:32:25 10° WSW 23:41:51 81° SSE 23:58:45 10° E visible
02 Feb - 01:45:49 10° W 01:58:58 87° N 02:19:12 10° E visible
02 Feb - 04:00:43 10° WNW 04:17:34 74° SSW 04:37:49 10° ESE visible
02 Feb - 06:18:00 10° W 06:35:16 40° SW 06:51:49 10° SSE daylight
02 Feb - 08:46:30 10° WSW 08:50:48 11° SW 08:54:57 10° SW daylight
02 Feb - 20:23:54 10° S 20:28:33 20° SE 20:35:01 10° E night (unlit)
02 Feb - 22:33:10 10° SW 22:41:06 67° SSE 22:55:31 10° ENE night (unlit)
03 Feb - 00:45:48 10° W 00:56:59 87° N 01:15:53 10° E visible
03 Feb - 02:59:57 10° W 03:15:02 82° SSW 03:35:41 10° ESE visible
03 Feb - 05:15:51 10° WNW 05:33:12 51° SSW 05:51:41 10° SE visible
03 Feb - 07:37:15 10° W 07:49:37 20° SW 08:01:06 10° S daylight
03 Feb - 21:34:20 10° SW 21:40:57 49° SSE 21:52:31 10° ENE night (unlit)
03 Feb - 23:46:06 10° W 23:55:31 90° S 00:12:27 10° E visible
04 Feb - 01:59:36 10° W 02:12:43 89° S 02:32:54 10° ESE visible
04 Feb - 04:14:28 10° WNW 04:30:53 62° SSW 04:50:41 10° SE visible
04 Feb - 06:32:48 10° W 06:48:04 30° SW 07:03:04 10° S daylight
04 Feb - 20:36:00 10° SSW 20:41:19 31° SE 20:49:41 10° E visible
04 Feb - 22:46:41 10° WSW 22:54:35 81° SSE 23:09:12 10° E night (unlit)
05 Feb - 00:59:35 10° W 01:10:46 87° N 01:29:39 10° E visible
05 Feb - 03:13:40 10° WNW 03:28:32 72° SSW 03:48:54 10° ESE visible
05 Feb - 05:30:04 10° W 05:46:12 39° SW 06:03:35 10° SSE visible
05 Feb - 07:57:17 10° WSW 08:02:27 11° SW 08:07:31 10° SSW daylight
05 Feb - 19:38:39 10° S 19:42:05 16° SE 19:46:31 10° E visible
05 Feb - 21:47:35 10° WSW 21:54:13 66° SSE 22:06:16 10° ENE night (unlit)
05 Feb - 23:59:51 10° W 00:09:17 86° N 00:26:13 10° E visible
06 Feb - 02:13:19 10° W 02:26:21 81° SSW 02:46:23 10° ESE visible
06 Feb - 04:28:24 10° W 04:44:05 50° SSW 05:03:04 10° SE visible
06 Feb - 06:48:54 10° W 07:00:56 20° SW 07:12:59 10° S daylight
06 Feb - 20:48:51 10° SW 20:54:22 46° SSE 21:03:42 10° E visible
06 Feb - 23:00:23 10° W 23:08:16 89° N 23:22:54 10° E visible
